Time,TemperatureF,DewpointF,PressureIn,WindDirection,WindDirectionDegrees,WindSpeedMPH,WindSpeedGustMPH,Humidity,HourlyPrecipIn,Conditions,Clouds,dailyrainin,SoftwareType,DateUTC
2013-05-06 00:09:00,53.4,47.0,30.05,North,9,2.0,7.0,79,0.00,,,0.00,weatherlink.com 1.10,2013-05-06 05:09:00,
2013-05-06 00:24:00,53.4,47.0,30.05,North,350,4.0,6.0,80,0.00,,,0.00,weatherlink.com 1.10,2013-05-06 05:24:00,
2013-05-06 00:39:00,53.7,48.0,30.05,North,351,4.0,5.0,80,0.00,,,0.00,weatherlink.com 1.10,2013-05-06 05:39:00,
2013-05-06 00:54:00,53.7,48.0,30.05,North,354,1.0,5.0,80,0.00,,,0.00,weatherlink.com 1.10,2013-05-06 05:54:00,
2013-05-06 01:09:00,53.4,48.0,30.04,North,353,3.0,6.0,81,0.00,,,0.00,weatherlink.com 1.10,2013-05-06 06:09:00,
2013-05-06 01:24:00,53.3,48.0,30.04,North,351,3.0,5.0,81,0.00,,,0.00,weatherlink.com 1.10,2013-05-06 06:24:00,
2013-05-06 01:39:00,52.9,47.0,30.03,North,7,3.0,6.0,81,0.00,,,0.00,weatherlink.com 1.10,2013-05-06 06:39:00,
2013-05-06 01:54:00,52.1,47.0,30.03,NNW,347,3.0,4.0,82,0.00,,,0.00,weatherlink.com 1.10,2013-05-06 06:54:00,
2013-05-06 02:09:00,51.8,47.0,30.03,North,8,4.0,5.0,83,0.00,,,0.00,weatherlink.com 1.10,2013-05-06 07:09:00,
2013-05-06 02:24:00,51.6,46.0,30.03,North,352,3.0,6.0,82,0.00,,,0.00,weatherlink.com 1.10,2013-05-06 07:24:00,
2013-05-06 02:39:00,51.5,46.0,30.02,North,357,4.0,6.0,82,0.00,,,0.00,weatherlink.com 1.10,2013-05-06 07:39:00,
2013-05-06 02:54:00,51.0,46.0,30.02,North,355,4.0,6.0,82,0.00,,,0.00,weatherlink.com 1.10,2013-05-06 07:54:00,
2013-05-06 03:09:00,50.5,46.0,30.01,North,2,5.0,8.0,83,0.00,,,0.00,weatherlink.com 1.10,2013-05-06 08:09:00,
2013-05-06 03:24:00,50.1,45.0,30.01,NNW,347,4.0,10.0,83,0.00,,,0.00,weatherlink.com 1.10,2013-05-06 08:24:00,
2013-05-06 03:39:00,49.6,45.0,30.01,North,6,6.0,8.0,84,0.00,,,0.00,weatherlink.com 1.10,2013-05-06 08:39:00,
2013-05-06 03:54:00,49.3,45.0,30.01,North,349,5.0,8.0,84,0.00,,,0.00,weatherlink.com 1.10,2013-05-06 08:54:00,
2013-05-06 04:09:00,49.1,45.0,30.01,North,6,5.0,8.0,84,0.00,,,0.00,weatherlink.com 1.10,2013-05-06 09:09:00,
2013-05-06 04:24:00,48.9,44.0,30.01,North,352,5.0,7.0,84,0.00,,,0.00,weatherlink.com 1.10,2013-05-06 09:24:00,
2013-05-06 04:39:00,48.6,44.0,30.02,North,352,3.0,7.0,85,0.00,,,0.00,weatherlink.com 1.10,2013-05-06 09:39:00,
2013-05-06 04:55:00,48.3,44.0,30.02,NNW,343,4.0,8.0,85,0.00,,,0.00,weatherlink.com 1.10,2013-05-06 09:55:00,
2013-05-06 05:09:00,48.2,44.0,30.02,NNW,345,5.0,7.0,86,0.00,,,0.00,weatherlink.com 1.10,2013-05-06 10:09:00,
2013-05-06 05:24:00,48.3,45.0,30.03,North,355,4.0,6.0,87,0.00,,,0.00,weatherlink.com 1.10,2013-05-06 10:24:00,
2013-05-06 05:39:00,48.6,45.0,30.03,North,350,3.0,6.0,86,0.00,,,0.00,weatherlink.com 1.10,2013-05-06 10:39:00,
2013-05-06 05:54:00,48.8,45.0,30.04,NNW,345,4.0,6.0,86,0.00,,,0.00,weatherlink.com 1.10,2013-05-06 10:54:00,
2013-05-06 06:09:00,49.0,45.0,30.04,NNW,339,4.0,5.0,86,0.00,,,0.00,weatherlink.com 1.10,2013-05-06 11:09:00,
2013-05-06 06:24:00,49.2,45.0,30.05,North,350,4.0,6.0,85,0.00,,,0.00,weatherlink.com 1.10,2013-05-06 11:24:00,
2013-05-06 06:39:00,49.7,45.0,30.05,North,2,3.0,7.0,85,0.00,,,0.00,weatherlink.com 1.10,2013-05-06 11:39:00,
2013-05-06 06:54:00,50.6,46.0,30.05,North,351,5.0,5.0,83,0.00,,,0.00,weatherlink.com 1.10,2013-05-06 11:54:00,
2013-05-06 07:09:00,51.2,46.0,30.05,NNW,330,4.0,6.0,81,0.00,,,0.00,weatherlink.com 1.10,2013-05-06 12:09:00,
2013-05-06 07:24:00,52.3,46.0,30.05,NNW,339,4.0,6.0,80,0.00,,,0.00,weatherlink.com 1.10,2013-05-06 12:24:00,
2013-05-06 07:39:00,53.4,47.0,30.06,North,1,4.0,4.0,78,0.00,,,0.00,weatherlink.com 1.10,2013-05-06 12:39:00,
2013-05-06 07:54:00,54.4,47.0,30.06,NNW,348,4.0,5.0,76,0.00,,,0.00,weatherlink.com 1.10,2013-05-06 12:54:00,
2013-05-06 08:09:00,55.6,47.0,30.06,NNW,347,3.0,5.0,74,0.00,,,0.00,weatherlink.com 1.10,2013-05-06 13:09:00,
2013-05-06 08:25:00,56.8,48.0,30.06,NNW,347,3.0,6.0,72,0.00,,,0.00,weatherlink.com 1.10,2013-05-06 13:25:00,
2013-05-06 08:40:00,57.5,49.0,30.06,NNW,337,3.0,6.0,72,0.00,,,0.00,weatherlink.com 1.10,2013-05-06 13:40:00,
2013-05-06 08:55:00,58.2,49.0,30.06,NNW,333,4.0,6.0,71,0.00,,,0.00,weatherlink.com 1.10,2013-05-06 13:55:00,
2013-05-06 09:10:00,59.3,50.0,30.06,NNW,331,3.0,4.0,71,0.00,,,0.00,weatherlink.com 1.10,2013-05-06 14:10:00,
2013-05-06 09:25:00,60.7,50.0,30.06,NNW,346,2.0,4.0,67,0.00,,,0.00,weatherlink.com 1.10,2013-05-06 14:25:00,
2013-05-06 09:40:00,61.7,49.0,30.07,North,355,0.0,3.0,64,0.00,,,0.00,weatherlink.com 1.10,2013-05-06 14:40:00,
2013-05-06 09:55:00,63.2,50.0,30.06,NNW,343,3.0,4.0,63,0.00,,,0.00,weatherlink.com 1.10,2013-05-06 14:55:00,
2013-05-06 10:10:00,63.5,51.0,30.06,NNW,348,4.0,5.0,63,0.00,,,0.00,weatherlink.com 1.10,2013-05-06 15:10:00,
2013-05-06 10:25:00,64.7,51.0,30.07,North,359,5.0,6.0,62,0.00,,,0.00,weatherlink.com 1.10,2013-05-06 15:25:00,
2013-05-06 10:40:00,66.0,51.0,30.06,North,9,2.0,6.0,59,0.00,,,0.00,weatherlink.com 1.10,2013-05-06 15:40:00,
2013-05-06 10:55:00,66.8,50.0,30.06,NNE,28,5.0,7.0,56,0.00,,,0.00,weatherlink.com 1.10,2013-05-06 15:55:00,
2013-05-06 11:10:00,67.6,51.0,30.06,NE,45,3.0,8.0,56,0.00,,,0.00,weatherlink.com 1.10,2013-05-06 16:10:00,
2013-05-06 11:25:00,68.4,52.0,30.05,NE,43,3.0,10.0,57,0.00,,,0.00,weatherlink.com 1.10,2013-05-06 16:25:00,
2013-05-06 11:40:00,69.3,53.0,30.05,NNW,335,7.0,11.0,57,0.00,,,0.00,weatherlink.com 1.10,2013-05-06 16:40:00,
2013-05-06 11:55:00,70.3,54.0,30.05,NE,47,5.0,10.0,56,0.00,,,0.00,weatherlink.com 1.10,2013-05-06 16:55:00,
2013-05-06 12:10:00,70.3,53.0,30.04,North,360,9.0,12.0,54,0.00,,,0.00,weatherlink.com 1.10,2013-05-06 17:10:00,
2013-05-06 12:25:00,70.3,54.0,30.04,North,10,8.0,8.0,56,0.00,,,0.00,weatherlink.com 1.10,2013-05-06 17:25:00,
2013-05-06 12:40:00,70.0,52.0,30.03,NNW,341,6.0,13.0,53,0.00,,,0.00,weatherlink.com 1.10,2013-05-06 17:40:00,
2013-05-06 12:55:00,70.7,50.0,30.03,North,8,7.0,13.0,49,0.00,,,0.00,weatherlink.com 1.10,2013-05-06 17:55:00,
2013-05-06 13:10:00,72.2,49.0,30.03,NNW,339,6.0,15.0,44,0.00,,,0.00,weatherlink.com 1.10,2013-05-06 18:10:00,
2013-05-06 13:25:00,72.7,49.0,30.03,NNE,18,14.0,15.0,44,0.00,,,0.00,weatherlink.com 1.10,2013-05-06 18:25:00,
2013-05-06 13:40:00,73.8,48.0,30.03,NNE,27,12.0,14.0,40,0.00,,,0.00,weatherlink.com 1.10,2013-05-06 18:40:00,
2013-05-06 13:55:00,74.0,49.0,30.03,North,10,11.0,16.0,41,0.00,,,0.00,weatherlink.com 1.10,2013-05-06 18:55:00,
2013-05-06 14:10:00,74.8,49.0,30.02,North,351,9.0,14.0,40,0.00,,,0.00,weatherlink.com 1.10,2013-05-06 19:10:00,
2013-05-06 14:25:00,75.1,49.0,30.02,NNE,20,12.0,16.0,40,0.00,,,0.00,weatherlink.com 1.10,2013-05-06 19:25:00,
2013-05-06 14:40:00,75.4,49.0,30.02,North,8,11.0,15.0,39,0.00,,,0.00,weatherlink.com 1.10,2013-05-06 19:40:00,
2013-05-06 14:55:00,73.9,47.0,30.02,NNE,13,12.0,18.0,39,0.00,,,0.00,weatherlink.com 1.10,2013-05-06 19:55:00,
2013-05-06 15:10:00,72.6,46.0,30.01,North,360,16.0,16.0,39,0.00,,,0.00,weatherlink.com 1.10,2013-05-06 20:10:00,
2013-05-06 15:25:00,73.1,45.0,30.01,NNE,12,11.0,15.0,37,0.00,,,0.00,weatherlink.com 1.10,2013-05-06 20:25:00,
2013-05-06 15:40:00,72.1,45.0,30.01,North,2,8.0,14.0,38,0.00,,,0.00,weatherlink.com 1.10,2013-05-06 20:40:00,
2013-05-06 15:56:00,71.6,47.0,30.00,North,6,8.0,14.0,41,0.00,,,0.00,weatherlink.com 1.10,2013-05-06 20:56:00,
2013-05-06 16:10:00,70.8,46.0,30.01,NNW,344,10.0,13.0,41,0.00,,,0.00,weatherlink.com 1.10,2013-05-06 21:10:00,
2013-05-06 16:25:00,69.7,45.0,30.01,NW,320,8.0,14.0,41,0.00,,,0.00,weatherlink.com 1.10,2013-05-06 21:25:00,
2013-05-06 16:40:00,67.5,45.0,30.01,NNE,12,9.0,14.0,44,0.00,,,0.00,weatherlink.com 1.10,2013-05-06 21:40:00,
2013-05-06 16:55:00,65.7,44.0,30.01,North,2,9.0,13.0,45,0.00,,,0.00,weatherlink.com 1.10,2013-05-06 21:55:00,
2013-05-06 17:10:00,68.3,44.0,30.01,NNW,339,7.0,13.0,42,0.00,,,0.00,weatherlink.com 1.10,2013-05-06 22:10:00,
2013-05-06 17:25:00,68.7,45.0,30.01,North,356,9.0,12.0,43,0.00,,,0.00,weatherlink.com 1.10,2013-05-06 22:25:00,
2013-05-06 17:41:00,68.3,45.0,30.01,NNE,17,11.0,14.0,43,0.00,,,0.00,weatherlink.com 1.10,2013-05-06 22:41:00,
2013-05-06 17:56:00,68.0,44.0,30.01,NNW,334,11.0,12.0,42,0.00,,,0.00,weatherlink.com 1.10,2013-05-06 22:56:00,
2013-05-06 18:11:00,67.6,43.0,30.02,North,360,10.0,12.0,41,0.00,,,0.00,weatherlink.com 1.10,2013-05-06 23:11:00,
2013-05-06 18:26:00,65.5,42.0,30.02,NNE,23,8.0,12.0,42,0.00,,,0.00,weatherlink.com 1.10,2013-05-06 23:26:00,
2013-05-06 18:41:00,64.1,41.0,30.02,NNE,28,10.0,13.0,43,0.00,,,0.00,weatherlink.com 1.10,2013-05-06 23:41:00,
2013-05-06 18:56:00,62.1,41.0,30.03,NNE,18,10.0,13.0,46,0.00,,,0.00,weatherlink.com 1.10,2013-05-06 23:56:00,
2013-05-06 19:11:00,60.8,41.0,30.04,NE,34,5.0,14.0,48,0.00,,,0.00,weatherlink.com 1.10,2013-05-07 00:11:00,
2013-05-06 19:26:00,60.0,41.0,30.04,NNE,29,5.0,10.0,50,0.00,,,0.00,weatherlink.com 1.10,2013-05-07 00:26:00,
2013-05-06 19:41:00,59.0,41.0,30.04,NNE,13,8.0,8.0,52,0.00,,,0.00,weatherlink.com 1.10,2013-05-07 00:41:00,
2013-05-06 19:56:00,58.5,41.0,30.05,NE,45,2.0,8.0,53,0.00,,,0.00,weatherlink.com 1.10,2013-05-07 00:56:00,
2013-05-06 20:11:00,57.7,41.0,30.05,NNE,14,3.0,8.0,54,0.00,,,0.00,weatherlink.com 1.10,2013-05-07 01:11:00,
2013-05-06 20:26:00,56.2,42.0,30.05,NNW,338,5.0,6.0,59,0.00,,,0.00,weatherlink.com 1.10,2013-05-07 01:26:00,
2013-05-06 20:41:00,54.8,42.0,30.05,NW,325,6.0,6.0,62,0.00,,,0.00,weatherlink.com 1.10,2013-05-07 01:41:00,
2013-05-06 20:56:00,53.8,43.0,30.05,NNW,336,6.0,6.0,66,0.00,,,0.00,weatherlink.com 1.10,2013-05-07 01:56:00,
2013-05-06 21:11:00,53.1,42.0,30.06,NNW,341,4.0,6.0,67,0.00,,,0.00,weatherlink.com 1.10,2013-05-07 02:11:00,
2013-05-06 21:26:00,52.6,43.0,30.06,NNW,339,4.0,6.0,69,0.00,,,0.00,weatherlink.com 1.10,2013-05-07 02:26:00,
2013-05-06 21:41:00,51.6,43.0,30.06,NW,325,6.0,6.0,72,0.00,,,0.00,weatherlink.com 1.10,2013-05-07 02:41:00,
2013-05-06 21:56:00,51.3,43.0,30.06,NNW,339,4.0,5.0,73,0.00,,,0.00,weatherlink.com 1.10,2013-05-07 02:56:00,
2013-05-06 22:11:00,50.7,43.0,30.06,NNW,332,4.0,6.0,74,0.00,,,0.00,weatherlink.com 1.10,2013-05-07 03:11:00,
2013-05-06 22:26:00,50.7,43.0,30.05,NNW,328,5.0,5.0,74,0.00,,,0.00,weatherlink.com 1.10,2013-05-07 03:26:00,
2013-05-06 22:41:00,50.8,43.0,30.05,NNW,330,3.0,5.0,74,0.00,,,0.00,weatherlink.com 1.10,2013-05-07 03:41:00,
2013-05-06 22:56:00,50.2,43.0,30.05,North,355,3.0,5.0,75,0.00,,,0.00,weatherlink.com 1.10,2013-05-07 03:56:00,
2013-05-06 23:11:00,49.9,43.0,30.05,NNW,334,2.0,6.0,76,0.00,,,0.00,weatherlink.com 1.10,2013-05-07 04:11:00,
2013-05-06 23:26:00,49.9,43.0,30.05,NNW,334,2.0,5.0,76,0.00,,,0.00,weatherlink.com 1.10,2013-05-07 04:26:00,
2013-05-06 23:41:00,49.4,43.0,30.06,NNW,334,2.0,5.0,78,0.00,,,0.00,weatherlink.com 1.10,2013-05-07 04:41:00,
2013-05-06 23:56:00,48.9,43.0,30.05,NNW,334,3.0,5.0,79,0.00,,,0.00,weatherlink.com 1.10,2013-05-07 04:56:00,